Weather Roundup
Issued by NWS

Home | Current Version | Previous Version | Graphics & Text | Print | Product List | Glossary Off
Versions: 1 2 3 4 5 6 7 8 9 10 11 12 13 14 15 16 17 18 19 20 21 22 23 24 25 26 27 28 29 30 31 32 33 34 35 36 37 38 39 40 41 42 43 44 45 46 47 48 49 50

000
NZUS93 KARX 241359
HRRWXR

CURRENT HOURLY OBSERVATIONS ACROSS
MUCH OF THE UPPER MISSISSIPPI VALLEY
NATIONAL WEATHER SERVICE LA CROSSE WI
900 AM CDT FRI MAR 24 2017


...SOUTHEAST MINNESOTA...


CITY           SKY/WX    TMP DP  RH WIND       PRES   REMARKS
ROCHESTER      CLOUDY    38  37  97 NE10      29.87R FOG     WCI  31
ROCHESTER/MAYO CLOUDY    38  39 100 NE5       29.87R WCI  35
WINONA         CLOUDY    37  37 100 CALM      29.92R FOG
AUSTIN         CLOUDY    39  37  93 NE5       29.87R FOG
ALBERT LEA     DRIZZLE   37  37 100 CALM      29.88R
DODGE CENTER   RAIN      37  36  93 N10       29.87R WCI  30
PRESTON        CLOUDY    38  36  94 N7        29.88R FOG     WCI  32
OWATONNA       CLOUDY    37  36  93 N10       29.90R FOG     WCI  30
FARIBAULT      DRIZZLE   37  37 100 N7        29.91R WCI  32
$$

...ELSEWHERE IN MINNESOTA...


CITY           SKY/WX    TMP DP  RH WIND       PRES   REMARKS
MINNEAPOLIS    CLOUDY    38  35  89 NE12      29.92S WCI  30
INTNL FALLS    CLOUDY    34  31  88 N7        30.03R WCI  28
DULUTH         CLOUDY    34  32  92 N8        29.96R FOG     WCI  27
RED WING       DRIZZLE   39  37  93 NE6       29.89F WCI  35
REDWOOD FALLS  CLOUDY    37  34  89 N10       29.96R FOG     WCI  30
MANKATO        FOG       38  37  97 N9        29.93R VSB 3/4 WCI  31
WORTHINGTON    LGT RAIN  35  35 100 N13G22    29.92R VSB 1/4 WCI  26
FAIRMONT       CLOUDY    38  37  97 N16       29.91R FOG     WCI  29
$$

...SOUTHWEST WISCONSIN...


CITY           SKY/WX    TMP DP  RH WIND       PRES   REMARKS
LA CROSSE      CLOUDY    42  40  92 N8        29.88R FOG
PRAIRIE DU CHI MOSUNNY   43  38  82 CALM      29.82S
BOSCOBEL       MOSUNNY   44  39  82 NE6       29.84F
LONE ROCK      NOT AVBL
PLATTEVILLE    CLOUDY    47  46  93 SE8       29.85S
FORT MC COY    CLOUDY    40  38  93 E5        29.88R
MAUSTON-NEW LI CLOUDY    41  38  90 CALM      29.86S FOG
VIROQUA        PTSUNNY   43  41  93 CALM      29.84R
WIS DELLS      PTSUNNY   43  37  80 CALM      29.86S
$$

...ELSEWHERE IN WISCONSIN...


CITY           SKY/WX    TMP DP  RH WIND       PRES   REMARKS
MILWAUKEE      CLOUDY    46  39  76 CALM      29.90F
MADISON        CLOUDY    47  41  80 SE5       29.86F
GREEN BAY      CLOUDY    40  37  89 NE3       29.92R FOG
EAU CLAIRE     NOT AVBL
BLACK RVR FLS  CLOUDY    40  40 100 CALM      29.88R FOG
MEDFORD        RAIN      34  34  99 CALM      29.90R
WAUSAU         LGT RAIN  35  35 100 CALM      29.89R FOG
WIS RAPIDS     CLOUDY    40  39  97 NE6       29.90R FOG
MARSHFIELD     CLOUDY    37  36  96 N7        29.88R FOG     WCI  32
RICE LAKE      DRIZZLE   35  35  98 CALM      29.93R
$$

...NORTHEAST IOWA...


CITY           SKY/WX    TMP DP  RH WIND       PRES   REMARKS
WATERLOO       CLOUDY    54  46  74 S9        29.79R
DUBUQUE        CLOUDY    54  48  80 SW12      29.84R
DECORAH        CLOUDY    43  39  87 N6        29.84R
MASON CITY     CLOUDY    42  40  92 N12       29.88R FOG
CHARLES CITY   CLOUDY    43  43 100 N8        29.85R
OELWEIN        CLOUDY    54  50  87 S15       29.81R
$$

...ELSEWHERE IN IOWA...


CITY           SKY/WX    TMP DP  RH WIND       PRES   REMARKS
DES MOINES     CLOUDY    62  48  60 SW3       29.81R
IOWA CITY      MOSUNNY   62  50  64 S12       29.85S
FORT DODGE     CLOUDY    43  37  81 NW8       29.89R
MARSHALLTOWN   CLOUDY    53  46  77 S8        29.81R
CEDAR RAPIDS   PTSUNNY   58  50  75 S17       29.81S
$$

...NORTHERN ILLINOIS...


CITY           SKY/WX    TMP DP  RH WIND       PRES   REMARKS
CHICAGO-OHARE  CLOUDY    59  47  64 S17       29.91S
CHICAGO-MIDWAY CLOUDY    59  48  67 SW18      29.94S
MOLINE         CLOUDY    62  47  57 S17G25    29.86S
ROCKFORD       CLOUDY    56  47  71 S8        29.90F
PEORIA         SUNNY     57  48  72 S14       29.95S
$$

NOTE: "FAIR" INDICATES FEW OR NO CLOUDS BELOW 12,000 FEET WITH NO
SIGNIFICANT WEATHER AND/OR OBSTRUCTIONS TO VISIBILITY. WIND
SPEEDS ARE IN MILES-PER-HOUR.




USA.gov is the U.S. government's official web portal to all federal, state and local government web resources and services.